W0VI Weather Reports


Display with metric or nautical units.
time (UTC)temp
F
wind
direction
speed
MPH
gust
MPH
rain 1hr
in
rain 24hr
in
rain mn
in
humidity
%
barometer
mb
20260502203343 65 209 2.0 3.0 0.00 0.00 0.00 34 1012.8
20260502202838 64 284 5.0 6.0 0.00 0.00 0.00 34 1012.9
20260502202336 65 259 5.0 7.0 0.00 0.00 0.00 34 1013.1
20260502201833 66 311 3.0 5.0 0.00 0.00 0.00 34 1013.2
20260502201329 64 256 3.0 6.0 0.00 0.00 0.00 36 1013.4
20260502200826 64 283 5.0 6.0 0.00 0.00 0.00 34 1013.5
20260502200321 64 201 5.0 7.0 0.00 0.00 0.00 34 1013.6
20260502195820 64 201 7.0 9.0 0.00 0.00 0.00 33 1013.6
20260502195316 64 231 7.0 9.0 0.00 0.00 0.00 34 1013.8
20260502194813 64 213 4.0 5.0 0.00 0.00 0.00 37 1013.8
20260502194310 64 195 3.0 5.0 0.00 0.00 0.00 35 1013.9
20260502193805 63 189 5.0 6.0 0.00 0.00 0.00 36 1014.3
20260502193303 63 323 5.0 6.0 0.00 0.00 0.00 33 1014.0
20260502192758 63 267 9.0 10.0 0.00 0.00 0.00 34 1014.4
20260502192256 63 212 4.0 5.0 0.00 0.00 0.00 35 1014.1
20260502191752 62 295 1.0 1.0 0.00 0.00 0.00 35 1014.4
20260502191250 62 207 6.0 7.0 0.00 0.00 0.00 34 1014.5
20260502190747 62 191 7.0 9.0 0.00 0.00 0.00 35 1014.6
20260502190244 62 214 5.0 6.0 0.00 0.00 0.00 36 1014.7
20260502185739 62 243 4.0 5.0 0.00 0.00 0.00 38 1014.9
20260502185236 62 176 3.0 3.0 0.00 0.00 0.00 35 1014.9
20260502184732 62 256 5.0 6.0 0.00 0.00 0.00 36 1015.1
20260502184228 61 243 5.0 7.0 0.00 0.00 0.00 36 1015.2
20260502183725 62 215 7.0 8.0 0.00 0.00 0.00 36 1015.3
20260502183220 61 167 6.0 7.0 0.00 0.00 0.00 35 1015.4
20260502182716 60 213 6.0 7.0 0.00 0.00 0.00 36 1015.2
20260502182211 60 234 5.0 6.0 0.00 0.00 0.00 36 1015.5
20260502181708 59 232 4.0 5.0 0.00 0.00 0.00 37 1015.5
20260502181203 59 203 5.0 8.0 0.00 0.00 0.00 37 1015.8
20260502180659 60 271 4.0 6.0 0.00 0.00 0.00 39 1015.6
20260502180156 59 215 4.0 7.0 0.00 0.00 0.00 37 1015.8
20260502170120 57 188 5.0 6.0 0.00 0.00 0.00 36 1017.1
20260502164101 57 220 2.0 3.0 0.00 0.00 0.00 38 1017.1
20260502163556 57 323 3.0 5.0 0.00 0.00 0.00 38 1017.1
20260502163054 57 197 3.0 5.0 0.00 0.00 0.00 37 1017.4
20260502162551 56 147 4.0 6.0 0.00 0.00 0.00 36 1017.5
20260502162048 56 241 3.0 5.0 0.00 0.00 0.00 37 1017.4
20260502161545 55 283 6.0 7.0 0.00 0.00 0.00 37 1017.6
20260502161042 55 225 7.0 9.0 0.00 0.00 0.00 38 1017.6
20260502160540 56 203 3.0 5.0 0.00 0.00 0.00 39 1017.6
20260502151953 54 246 3.0 5.0 0.00 0.00 0.00 41 1018.2
20260502151450 54 291 4.0 7.0 0.00 0.00 0.00 42 1018.1
20260502150947 53 217 3.0 3.0 0.00 0.00 0.00 42 1018.0
20260502150444 54 271 5.0 6.0 0.00 0.00 0.00 41 1018.1
20260502130329 44 288 2.0 2.0 0.00 0.00 0.00 60 1018.8
20260502123815 42 280 2.0 5.0 0.00 0.00 0.00 63 1018.8
20260502123312 42 262 3.0 3.0 0.00 0.00 0.00 64 1019.0
20260502122809 41 296 2.0 2.0 0.00 0.00 0.00 65 1019.0
20260502122306 41 278 3.0 3.0 0.00 0.00 0.00 65 1018.7
20260502121803 40 277 3.0 3.0 0.00 0.00 0.00 66 1018.7
20260502121301 40 285 1.0 1.0 0.00 0.00 0.00 67 1018.9
20260502120757 39 267 2.0 3.0 0.00 0.00 0.00 68 1018.7
20260502120254 39 287 0.0 1.0 0.00 0.00 0.00 69 1018.8
20260502115752 38 282 1.0 1.0 0.00 0.00 0.00 70 1018.7
20260502115248 38 285 1.0 1.0 0.00 0.00 0.00 70 1018.7
20260502114744 38 301 1.0 1.0 0.00 0.00 0.00 71 1018.8
20260502114241 37 272 2.0 2.0 0.00 0.00 0.00 71 1018.9
20260502113738 37 296 2.0 2.0 0.00 0.00 0.00 72 1018.7
20260502113236 37 289 2.0 2.0 0.00 0.00 0.00 72 1019.0
20260502112734 37 280 1.0 2.0 0.00 0.00 0.00 71 1018.6
20260502112231 37 274 2.0 2.0 0.00 0.00 0.00 71 1018.8
20260502111728 37 300 2.0 2.0 0.00 0.00 0.00 71 1018.8
20260502111226 37 296 1.0 1.0 0.00 0.00 0.00 70 1018.6
20260502110723 37 278 2.0 2.0 0.00 0.00 0.00 70 1018.7
20260502110221 37 279 3.0 3.0 0.00 0.00 0.00 69 1018.8
20260502105719 38 273 2.0 2.0 0.00 0.00 0.00 69 1018.6
20260502105215 38 293 1.0 2.0 0.00 0.00 0.00 68 1018.7
20260502104713 38 291 3.0 3.0 0.00 0.00 0.00 68 1018.7
20260502104210 38 295 1.0 2.0 0.00 0.00 0.00 68 1018.6
20260502103707 38 286 1.0 1.0 0.00 0.00 0.00 68 1018.5
20260502103205 38 284 2.0 2.0 0.00 0.00 0.00 67 1018.6
20260502102702 38 281 1.0 2.0 0.00 0.00 0.00 67 1018.5
20260502102158 38 286 1.0 1.0 0.00 0.00 0.00 67 1018.6
20260502101656 38 305 0.0 1.0 0.00 0.00 0.00 66 1018.6
20260502101154 38 299 0.0 1.0 0.00 0.00 0.00 66 1018.7
20260502100652 39 294 2.0 2.0 0.00 0.00 0.00 66 1018.4
20260502100150 39 279 1.0 2.0 0.00 0.00 0.00 65 1018.5
20260502091125 39 278 1.0 1.0 0.00 0.00 0.00 66 1018.5
20260502090621 39 274 1.0 1.0 0.00 0.00 0.00 66 1018.4
20260502090119 39 308 0.0 0.0 0.00 0.00 0.00 65 1018.3
20260502071516 42 299 0.0 0.0 0.00 0.00 0.00 59 1018.5
20260502071014 42 305 1.0 1.0 0.00 0.00 0.00 58 1018.8
20260502070512 42 252 2.0 2.0 0.00 0.00 0.00 58 1018.6
20260502070010 42 297 1.0 1.0 0.00 0.00 0.00 57 1018.7
20260502065508 43 293 1.0 2.0 0.00 0.00 0.00 56 1018.7
20260502065006 43 314 1.0 1.0 0.00 0.00 0.00 55 1018.8
20260502064504 43 274 2.0 3.0 0.00 0.00 0.00 55 1018.8
20260502064000 43 265 5.0 6.0 0.00 0.00 0.00 54 1018.8
20260502063459 43 275 3.0 3.0 0.00 0.00 0.00 54 1018.7
20260502062956 43 304 2.0 3.0 0.00 0.00 0.00 54 1018.8
20260502062452 43 280 1.0 2.0 0.00 0.00 0.00 55 1019.0
20260502061951 43 243 5.0 5.0 0.00 0.00 0.00 55 1018.9
20260502061449 43 291 1.0 2.0 0.00 0.00 0.00 55 1018.8
20260502060944 43 287 3.0 3.0 0.00 0.00 0.00 55 1018.8
20260502060440 43 274 2.0 3.0 0.00 0.00 0.00 56 1018.8
20260502055937 43 264 2.0 3.0 0.00 0.00 0.00 56 1018.9
20260502055435 43 231 2.0 2.0 0.00 0.00 0.00 55 1018.7
20260502054929 43 270 4.0 5.0 0.00 0.00 0.00 54 1018.9
20260502054427 43 303 1.0 1.0 0.00 0.00 0.00 54 1019.0
20260502053924 43 284 1.0 1.0 0.00 0.00 0.00 54 1018.8
20260502053421 43 313 2.0 3.0 0.00 0.00 0.00 54 1018.8
20260502052918 43 261 3.0 5.0 0.00 0.00 0.00 54 1018.9
20260502052416 43 269 3.0 3.0 0.00 0.00 0.00 53 1019.1
20260502051914 43 256 4.0 5.0 0.00 0.00 0.00 53 1018.9
20260502051412 43 297 2.0 2.0 0.00 0.00 0.00 53 1019.1
20260502050909 43 308 1.0 2.0 0.00 0.00 0.00 53 1019.0
20260502050405 43 323 1.0 1.0 0.00 0.00 0.00 53 1019.0
20260502045903 43 300 1.0 2.0 0.00 0.00 0.00 52 1019.1
20260502045359 44 310 1.0 1.0 0.00 0.00 0.00 51 1018.9
20260502044856 44 310 1.0 1.0 0.00 0.00 0.00 50 1019.0
20260502044352 44 278 3.0 3.0 0.00 0.00 0.00 50 1018.8
20260502043849 44 291 3.0 3.0 0.00 0.00 0.00 49 1018.8
20260502043347 44 280 3.0 3.0 0.00 0.00 0.00 50 1018.8
20260502042846 44 280 1.0 1.0 0.00 0.00 0.00 50 1018.7
20260502042343 44 290 2.0 2.0 0.00 0.00 0.00 49 1018.9
20260502041841 45 304 1.0 2.0 0.00 0.00 0.00 49 1018.8
20260502041338 44 282 3.0 3.0 0.00 0.00 0.00 50 1019.0
20260502040835 44 298 1.0 1.0 0.00 0.00 0.00 49 1018.8
20260502040332 44 289 2.0 2.0 0.00 0.00 0.00 49 1019.1
20260502035828 45 275 2.0 2.0 0.00 0.00 0.00 49 1018.9
20260502035325 45 293 2.0 2.0 0.00 0.00 0.00 49 1018.7
20260502034822 44 301 0.0 1.0 0.00 0.00 0.00 49 1018.9
20260502034321 45 311 1.0 1.0 0.00 0.00 0.00 48 1018.9
20260502033819 46 287 1.0 1.0 0.00 0.00 0.00 46 1018.7
20260502033316 45 289 2.0 2.0 0.00 0.00 0.00 46 1019.1
20260502032812 45 304 0.0 1.0 0.00 0.00 0.00 46 1019.1
20260502032308 45 299 1.0 1.0 0.00 0.00 0.00 46 1018.9
20260502031807 45 306 1.0 1.0 0.00 0.00 0.00 46 1019.0
20260502031304 46 301 1.0 1.0 0.00 0.00 0.00 46 1018.9
20260502030803 46 303 1.0 1.0 0.00 0.00 0.00 46 1018.9
20260502030300 46 311 0.0 1.0 0.00 0.00 0.00 46 1018.9
20260502025758 46 300 1.0 1.0 0.00 0.00 0.00 45 1019.0
20260502025255 46 304 1.0 2.0 0.00 0.00 0.00 46 1018.7
20260502024753 46 316 1.0 1.0 0.00 0.00 0.00 45 1018.9
20260502024250 46 313 1.0 1.0 0.00 0.00 0.00 44 1018.8
20260502023749 46 305 1.0 2.0 0.00 0.00 0.00 44 1019.0
20260502023246 46 299 1.0 1.0 0.00 0.00 0.00 44 1018.9
20260502022744 46 301 1.0 1.0 0.00 0.00 0.00 44 1018.8
20260502022239 47 310 1.0 1.0 0.00 0.00 0.00 44 1019.1
20260502021736 47 294 1.0 2.0 0.00 0.00 0.00 43 1018.8
20260502021234 47 294 2.0 2.0 0.00 0.00 0.00 43 1018.8
20260502020731 47 311 0.0 1.0 0.00 0.00 0.00 44 1018.5
20260502020228 47 310 1.0 1.0 0.00 0.00 0.00 44 1018.7
20260502015726 48 307 1.0 1.0 0.00 0.00 0.00 42 1018.6
20260502015222 48 298 1.0 1.0 0.00 0.00 0.00 42 1018.5
20260502014720 48 310 0.0 0.0 0.00 0.00 0.00 42 1018.5
20260502014216 48 292 1.0 1.0 0.00 0.00 0.00 42 1018.3
20260502013713 48 310 1.0 1.0 0.00 0.00 0.00 41 1018.3
20260502013208 48 292 1.0 1.0 0.00 0.00 0.00 40 1018.2
20260502012705 49 305 1.0 1.0 0.00 0.00 0.00 40 1018.3
20260502012203 49 310 1.0 1.0 0.00 0.00 0.00 40 1018.3
20260502011700 50 316 1.0 1.0 0.00 0.00 0.00 39 1018.4
20260502011155 50 327 1.0 1.0 0.00 0.00 0.00 37 1018.1
20260502010654 50 293 1.0 1.0 0.00 0.00 0.00 36 1018.3
20260502010149 51 284 2.0 2.0 0.00 0.00 0.00 35 1018.3
20260502005647 51 314 1.0 1.0 0.00 0.00 0.00 35 1018.3
20260502005145 51 309 1.0 2.0 0.00 0.00 0.00 35 1018.2
20260502004640 52 340 1.0 1.0 0.00 0.00 0.00 34 1018.3
20260502004137 52 283 5.0 6.0 0.00 0.00 0.00 33 1018.2
20260502003635 52 297 2.0 2.0 0.00 0.00 0.00 34 1018.4
20260502003132 52 338 2.0 2.0 0.00 0.00 0.00 35 1018.3
20260502002628 52 246 2.0 2.0 0.00 0.00 0.00 35 1018.2
20260502002126 53 324 1.0 2.0 0.00 0.00 0.00 33 1018.2
20260502001623 53 359 1.0 2.0 0.00 0.00 0.00 33 1018.4
20260502001120 53 308 1.0 2.0 0.00 0.00 0.00 33 1018.3
20260502000619 52 264 5.0 6.0 0.00 0.00 0.00 33 1018.4
20260502000116 53 301 1.0 1.0 0.00 0.00 0.00 33 1018.1
20260501235611 53 303 3.0 3.0 0.00 0.00 0.00 33 1018.2
20260501235107 54 311 5.0 6.0 0.00 0.00 0.00 31 1018.2
20260501234603 53 316 1.0 1.0 0.00 0.00 0.00 33 1018.4
20260501234101 53 325 3.0 5.0 0.00 0.00 0.00 32 1018.2
20260501233559 53 321 7.0 8.0 0.00 0.00 0.00 31 1018.3
20260501233055 53 279 3.0 5.0 0.00 0.00 0.00 32 1018.2
20260501232551 54 289 1.0 1.0 0.00 0.00 0.00 33 1018.4
20260501232049 53 344 1.0 2.0 0.00 0.00 0.00 32 1018.3
20260501231547 51 18 3.0 3.0 0.00 0.00 0.00 34 1018.3
20260501231045 52 348 4.0 5.0 0.00 0.00 0.00 34 1018.4
20260501230544 53 279 2.0 3.0 0.00 0.00 0.00 34 1018.3
20260501230041 53 344 3.0 5.0 0.00 0.00 0.00 33 1018.2
20260501225538 52 300 3.0 5.0 0.00 0.00 0.00 34 1018.3
20260501225034 52 310 2.0 2.0 0.00 0.00 0.00 34 1018.5
20260501224532 54 288 7.0 10.0 0.00 0.00 0.00 33 1018.4
20260501224029 54 354 1.0 1.0 0.00 0.00 0.00 34 1018.4
20260501223525 54 276 5.0 6.0 0.00 0.00 0.00 33 1018.2
20260501223021 53 284 7.0 8.0 0.00 0.00 0.00 32 1018.5
20260501222518 54 344 7.0 9.0 0.00 0.00 0.00 32 1018.4
20260501222015 55 327 1.0 2.0 0.00 0.00 0.00 32 1018.4
20260501221511 53 330 3.0 3.0 0.00 0.00 0.00 33 1018.3
20260501221009 52 356 1.0 1.0 0.00 0.00 0.00 36 1018.6
20260501220507 53 319 2.0 3.0 0.00 0.00 0.00 34 1018.4
20260501220003 52 294 3.0 3.0 0.00 0.00 0.00 32 1018.5
20260501215459 52 33 2.0 2.0 0.00 0.00 0.00 34 1018.3
20260501214955 51 326 3.0 5.0 0.00 0.00 0.00 35 1018.6
20260501214450 52 4 2.0 3.0 0.00 0.00 0.00 36 1018.2
20260501213946 51 316 3.0 5.0 0.00 0.00 0.00 34 1018.3
20260501213444 53 298 3.0 5.0 0.00 0.00 0.00 34 1018.4
20260501212938 52 8 2.0 3.0 0.00 0.00 0.00 32 1018.4
20260501212436 51 302 2.0 3.0 0.00 0.00 0.00 35 1018.3
20260501211932 51 6 5.0 7.0 0.00 0.00 0.00 36 1018.4
20260501211430 51 322 3.0 5.0 0.00 0.00 0.00 35 1018.4
20260501210927 52 1 1.0 2.0 0.00 0.00 0.00 35 1018.5
20260501210424 53 331 3.0 5.0 0.00 0.00 0.00 34 1018.5
20260501205921 53 0 1.0 1.0 0.00 0.00 0.00 36 1018.5
20260501205418 53 319 1.0 2.0 0.00 0.00 0.00 34 1018.7
20260501204915 51 317 0.0 1.0 0.00 0.00 0.00 37 1018.6
20260501204410 51 342 1.0 1.0 0.00 0.00 0.00 37 1018.7
20260501203907 51 254 3.0 3.0 0.00 0.00 0.00 34 1018.6